Location: Mountain Grove
(34.0887°N, 86.6172°W)
Time: 15:21:52
(UTC+00:00)

BREEZE-M R/B - Pass Details

Date: 14 July 2020
Orbit: 311 x 4532 km, 49.7° (Epoch: 12 August)

Event Time Altitude Azimuth Distance (km) Brightness Sun altitude
Rises 02:18:13 0° 308° (NW) 6,722 10.3 -14.5°
Reaches altitude 10° 02:23:42 10° 310° (NW) 4,980 9.1 -15.4°
Maximum altitude 02:35:43 79° 37° (NE) 1,212 4.4 -17.3°
Enters shadow 02:38:59 28° 120° (ESE) 1,616 4.6 -17.8°
